Temp
7 7 7 7 6 6 6 6 6 6 6 6 6 6 7 7 7 7 7 7 7 7 7 7 7 7 7 7 7 8 9 10 10 10 10 11 12 12 11 11 12 12 12 12 12 12 12 12 12 12 12 12 13 13 13 13 13 14 14 15 15 16 16 16 16 16 16 16 16 15 15 16 16 15 15 15 16 16 15 15 16 16 16 16 16 16 16 17
6 6 6 6 6 6 6 6 6 6 6 6 6 6 6 7 7 7 7 7 7 7 7 7 7 7 7 7 8 8 9 9 10 10 10 11 11 11 11 11 11 11 12 12 12 12 12 12 12 12 12 12 13 13 13 13 13 14 14 15 15 16 16 16 16 16 16 16 16 15 15 16 16 15 15 16 15 15 15 15 15 16 16 16 15 16 16 16
6 6 6 6 6 6 6 6 6 6 6 6 6 6 6 6 7 7 7 7 7 7 7 7 7 7 7 7 8 9 9 9 10 11 11 11 11 11 10 10 11 11 11 11 12 12 12 12 12 12 12 12 13 13 13 13 13 14 14 15 15 16 16 15 15 16 16 16 16 16 15 15 16 16 15 16 15 14 15 15 15 15 16 16 16 15 16 16
6 6 6 6 6 6 6 6 6 6 6 6 6 6 6 6 6 6 6 7 7 7 7 7 7 7 7 7 8 9 9 10 11 10 11 11 10 10 10 10 10 11 11 11 12 12 13 12 12 13 12 12 13 13 13 13 14 14 14 15 15 15 15 16 15 15 15 15 16 16 15 15 16 15 15 16 15 15 15 16 16 16 16 16 16 15 15 15
6 6 6 6 6 5 5 5 5 5 5 6 6 6 6 6 6 6 6 7 7 7 7 7 7 7 7 7 9 9 10 13 12 9 10 10 10 10 10 10 10 11 11 12 12 12 12 12 12 13 12 12 13 13 13 14 14 14 14 14 15 14 15 16 15 15 15 15 15 15 15 15 15 15 15 16 16 16 15 16 16 16 17 16 16 15 15 15
6 6 6 6 5 5 5 5 5 5 5 6 6 6 6 6 6 6 6 6 6 7 7 7 7 7 7 8 9 8 11 14 11 8 10 10 10 10 10 10 10 11 11 12 12 11 12 12 12 13 12 12 13 13 13 13 13 14 14 14 14 14 15 15 15 14 14 15 15 15 15 15 15 15 15 15 16 16 16 16 16 16 16 16 15 15 15 15
6 5 5 5 5 5 5 5 5 5 5 6 6 6 6 6 6 6 6 6 6 6 6 7 7 7 7 8 9 9 10 12 9 9 10 9 10 10 10 10 10 11 11 11 11 11 12 12 12 12 12 12 12 13 13 13 13 13 13 14 14 14 14 14 14 14 14 15 14 14 15 15 15 15 14 15 16 16 16 16 16 15 14 15 15 16 16 16
6 5 5 5 5 5 5 5 5 5 6 6 5 6 6 6 6 6 6 6 6 6 6 7 7 7 7 8 9 10 10 10 9 9 10 10 10 10 10 10 10 11 11 11 11 11 12 12 12 12 12 11 12 12 13 13 13 13 13 13 14 14 14 13 13 14 14 14 13 13 15 14 14 13 14 16 16 16 16 16 16 15 15 15 16 16 16 16
5 5 5 5 5 5 5 5 5 5 5 6 5 5 6 6 6 7 7 7 6 6 6 7 7 7 8 8 10 11 11 10 9 10 10 10 10 10 10 10 10 11 11 11 11 11 11 12 12 12 12 12 11 12 13 13 13 13 13 13 14 14 13 13 13 13 14 14 13 14 15 14 13 13 15 17 16 15 16 16 15 15 16 15 15 15 15 15
5 5 5 5 4 4 5 5 5 5 5 5 5 5 6 7 7 7 7 7 7 6 7 7 7 7 8 9 10 12 11 9 9 10 10 10 10 10 11 11 11 11 11 10 10 11 11 11 11 11 12 12 12 11 12 13 13 13 13 13 13 13 13 13 13 13 13 14 14 14 15 14 13 13 16 17 14 13 15 16 15 15 16 15 14 14 14 14
5 5 5 5 4 4 4 4 5 5 5 5 5 6 7 7 8 7 7 7 7 7 7 7 7 8 8 9 11 12 10 9 10 10 10 10 10 10 10 11 11 11 11 10 10 11 12 10 10 11 12 12 11 11 11 12 12 12 12 13 13 12 13 13 13 14 14 14 14 14 15 14 13 13 16 16 13 13 15 15 14 15 15 15 14 14 14 14
5 5 5 5 4 4 4 4 5 5 5 5 6 6 7 7 8 8 7 7 7 7 7 7 7 8 8 9 10 10 9 9 9 9 10 10 10 10 10 11 11 11 11 10 10 11 12 11 11 12 12 12 12 12 12 11 12 12 12 13 13 12 12 13 14 13 13 14 14 14 15 14 14 14 15 14 13 13 15 16 14 14 14 14 14 13 14 14
5 5 4 4 4 4 4 4 5 5 5 6 6 7 7 7 8 8 8 8 8 7 7 7 8 8 9 10 9 9 9 9 9 9 10 10 10 10 10 10 11 11 11 11 10 11 11 11 12 12 11 12 12 12 12 11 11 12 12 13 13 12 13 12 12 13 13 14 13 14 14 14 15 15 13 12 11 13 15 15 15 14 13 13 13 13 14 13
4 4 4 4 4 4 4 4 4 5 6 7 7 7 7 7 7 8 8 7 7 7 7 7 8 8 9 10 9 8 9 9 9 9 9 10 10 10 10 10 10 11 11 11 11 11 11 11 12 11 10 11 12 11 11 11 11 12 12 12 12 12 13 12 10 12 14 12 12 14 14 13 15 14 11 9 10 12 14 15 14 14 14 13 13 13 15 14
4 4 4 4 4 4 4 4 4 5 6 7 7 8 7 7 7 7 7 7 7 7 8 8 8 8 9 9 8 8 9 9 9 9 9 10 10 10 10 10 10 10 11 11 11 11 11 11 12 12 11 10 11 12 12 12 11 12 12 11 11 11 12 13 10 11 14 12 12 14 13 13 14 14 11 8 9 11 12 14 14 14 14 14 14 14 15 14
4 4 4 4 4 4 4 4 4 4 6 8 8 8 8 7 7 7 7 7 7 7 8 8 8 8 10 10 8 8 9 8 8 9 9 9 10 10 9 10 10 10 11 10 11 11 11 12 11 10 11 10 11 12 11 11 11 11 11 11 11 11 11 13 11 10 12 12 12 13 14 14 13 12 10 8 9 11 12 13 13 13 13 13 13 13 14 14
4 4 4 3 3 3 4 4 4 4 6 8 8 8 7 7 7 7 7 7 7 7 7 8 8 8 9 9 8 8 7 7 8 8 9 9 9 10 9 9 8 9 10 10 11 11 10 10 9 9 10 10 10 11 11 10 10 10 10 11 10 10 11 12 12 10 9 12 12 12 12 14 14 12 11 8 9 12 12 13 13 12 12 12 13 12 11 11
4 4 3 3 3 3 4 4 4 4 6 8 8 8 7 7 7 8 7 7 7 7 8 8 8 10 10 8 7 7 6 7 8 8 9 9 9 9 10 9 7 8 10 10 10 10 10 9 9 10 10 9 9 11 11 10 11 10 10 10 10 10 10 11 13 11 9 11 11 11 11 12 13 12 11 9 9 12 12 12 12 11 11 10 10 9 8 9
3 3 3 3 4 3 4 4 3 4 6 8 8 7 8 8 8 8 8 8 8 8 9 8 7 9 9 7 6 6 7 7 7 8 8 9 9 9 9 9 8 9 9 9 10 9 9 9 9 9 9 9 9 10 11 11 12 11 10 10 10 10 10 10 11 10 9 11 10 11 11 11 12 12 12 10 9 11 12 11 10 9 8 8 7 6 6 6
3 3 3 3 3 3 4 3 3 4 6 8 8 7 8 8 9 9 6 6 6 5 6 6 5 6 7 6 5 6 7 7 7 8 8 8 8 9 9 8 9 9 9 9 9 9 9 9 8 9 9 9 9 10 10 10 11 11 10 10 10 11 11 10 11 9 8 11 11 10 10 11 11 11 11 10 10 11 11 11 9 6 6 4 4 4 4 4
3 3 3 3 3 3 4 3 3 4 6 8 8 6 5 4 7 7 4 5 3 0 3 4 3 5 5 5 5 5 7 7 7 7 7 8 8 8 9 8 9 8 8 8 9 8 8 8 8 9 10 9 9 9 9 10 10 11 11 10 10 10 11 11 10 9 8 10 11 9 10 11 10 11 10 9 10 10 8 8 6 4 3 2 2 2 2 2
3 3 3 3 3 3 3 3 3 4 6 7 5 2 0 0 2 2 1 5 5 0 2 4 3 4 5 5 5 5 6 7 7 7 7 8 8 8 8 8 8 8 7 8 8 8 8 8 9 9 9 9 9 9 9 10 10 10 10 10 10 9 10 10 9 8 9 10 11 10 10 11 10 10 9 8 9 6 3 3 2 1 1 0 1 1 0 1
2 2 3 3 3 3 3 3 3 4 5 4 1 -0 -0 0 1 1 1 4 6 4 4 5 5 6 6 5 5 5 6 7 7 7 7 7 8 8 8 8 8 8 8 8 8 8 8 8 9 9 9 9 9 8 9 9 9 10 10 10 10 9 10 12 10 8 8 9 10 10 10 11 11 10 7 6 5 3 1 1 -0 0 0 -1 -1 -1 -1 -1
2 2 3 3 3 3 3 3 4 3 2 1 0 0 0 1 1 1 1 3 5 6 6 5 5 6 6 6 5 6 7 6 6 6 6 7 7 7 8 8 8 8 8 8 8 8 9 8 7 7 9 10 9 8 8 9 9 9 9 10 11 10 10 11 10 9 9 8 9 10 11 11 12 11 8 5 3 1 0 -0 -1 -1 -1 -1 -1 -2 -2 -2
2 2 2 3 3 3 3 3 3 2 2 1 1 1 1 1 2 1 2 4 6 6 6 5 5 6 6 6 6 6 6 6 6 6 5 6 7 7 8 7 7 8 8 7 7 8 9 7 6 7 8 9 9 8 8 9 9 9 9 10 11 12 11 10 9 9 10 9 9 10 12 12 11 10 8 5 3 0 -1 -1 -2 -2 -2 -2 -2 -2 -2 -3
2 2 2 3 2 3 4 3 2 2 2 1 1 1 1 1 2 1 3 7 8 7 6 6 6 7 6 6 6 6 6 6 6 5 5 5 6 6 7 7 7 7 7 7 7 8 8 6 7 8 8 8 9 8 8 8 9 9 9 9 10 11 11 10 9 10 10 10 9 8 11 12 11 9 5 2 1 -1 -1 -1 -2 -2 -2 -2 -2 -2 -3 -3
2 2 2 2 2 4 4 3 2 2 2 1 1 2 1 1 2 1 4 9 9 7 7 7 7 7 7 5 5 6 7 7 6 5 5 5 5 6 7 7 7 7 6 7 8 8 7 7 7 8 8 8 8 8 8 8 9 9 7 7 9 10 10 10 10 10 10 9 8 8 10 11 11 9 4 1 1 -1 -1 -2 -2 -2 -2 -2 -3 -3 -3 -4
2 2 2 2 2 3 3 2 2 1 1 1 1 2 2 2 1 2 7 10 8 6 7 7 7 7 6 5 5 6 6 6 7 6 5 5 6 7 8 7 7 7 5 6 9 7 6 8 8 8 8 8 8 8 8 8 9 8 5 5 7 8 9 9 9 10 8 9 10 8 8 10 10 9 5 4 3 0 -1 -2 -3 -3 -3 -3 -3 -4 -4 -4
1 2 2 2 2 2 2 2 1 0 1 1 1 2 2 1 2 4 8 9 7 6 6 6 7 7 6 6 6 6 5 5 6 6 5 6 6 6 7 6 6 7 5 6 8 7 6 6 6 7 8 9 8 6 6 8 9 6 4 6 6 6 7 7 8 9 8 8 10 9 8 9 10 9 6 6 4 0 -1 -2 -3 -3 -4 -4 -5 -5 -5 -6
1 1 1 2 2 2 2 2 1 1 1 2 2 2 1 1 4 8 9 8 7 6 5 6 6 5 5 6 7 5 5 5 5 5 6 6 6 6 5 5 5 7 6 6 7 7 5 5 5 6 7 7 6 4 4 7 7 6 6 8 8 7 7 7 7 8 8 8 9 9 8 9 10 8 4 3 2 -0 -1 -2 -4 -4 -5 -5 -6 -6 -7 -7
1 1 1 2 2 2 2 1 2 2 2 2 2 1 2 4 7 9 8 6 6 6 5 5 4 4 3 4 5 5 5 5 4 5 6 6 6 5 5 5 6 7 7 7 7 6 6 6 6 6 6 6 7 6 5 5 5 7 8 9 9 8 7 7 7 7 8 8 7 6 6 8 10 7 0 -1 -1 -2 -2 -3 -5 -5 -6 -6 -6 -7 -7 -7
1 1 1 2 2 2 1 1 1 2 2 2 1 1 4 7 8 8 7 6 6 5 4 4 3 3 2 2 3 3 3 4 4 4 5 4 3 1 2 3 3 6 8 6 7 7 7 7 5 5 5 5 7 8 6 5 6 7 8 9 9 8 6 7 7 6 6 7 5 3 5 8 7 3 -1 -2 -3 -3 -3 -4 -5 -6 -6 -7 -7 -7 -7 -8
1 1 2 2 2 1 1 1 2 3 3 2 2 4 7 9 8 5 4 4 5 3 2 3 2 1 2 3 3 1 2 4 3 3 3 3 3 1 1 -0 -1 4 6 4 5 7 8 6 4 6 6 4 6 8 7 7 7 7 8 8 8 7 6 6 6 5 6 7 4 3 5 8 6 1 -2 -3 -4 -4 -4 -5 -5 -6 -6 -7 -7 -7 -8 -8
1 2 2 2 2 2 2 2 3 3 3 2 4 6 8 8 6 3 2 1 1 1 1 1 1 1 2 2 1 0 2 3 2 3 4 4 4 2 1 -0 -1 1 3 4 5 6 7 7 5 5 5 3 4 5 6 7 7 6 7 7 8 8 8 7 7 6 7 6 4 4 6 7 7 1 -3 -3 -4 -4 -5 -5 -5 -6 -6 -6 -7 -8 -8 -9
2 1 2 2 2 2 2 3 3 3 2 2 6 7 7 7 3 0 1 -0 -1 1 1 0 1 3 2 1 0 -0 2 3 1 2 3 2 1 0 -1 -1 -2 -1 1 4 5 3 5 6 3 2 2 2 3 3 3 5 7 6 5 6 7 7 8 7 5 5 6 5 4 5 3 1 0 -2 -4 -4 -4 -5 -5 -5 -6 -6 -7 -7 -8 -8 -8 -9
2 1 2 2 2 2 3 3 4 3 2 4 7 7 4 2 -0 -1 -1 -1 -1 -0 0 1 2 3 3 1 0 -0 1 2 1 2 2 0 -1 -2 -2 -2 -3 -3 -1 1 2 2 3 4 3 2 2 2 2 2 3 4 7 6 5 6 5 4 7 7 4 2 3 6 5 4 2 -2 -3 -2 -4 -4 -4 -5 -5 -6 -6 -6 -7 -7 -8 -9 -9 -9
2 2 2 1 1 3 3 3 4 3 3 6 7 3 -1 -2 -2 -2 -2 -1 -1 -1 0 3 2 1 1 1 0 -1 -0 1 1 1 2 0 -1 -2 -3 -2 -3 -3 -3 -2 -0 0 1 2 2 1 3 3 0 1 3 2 4 5 5 5 4 3 5 6 6 3 3 5 5 4 3 0 1 1 -3 -5 -4 -5 -6 -6 -7 -7 -7 -8 -8 -9 -9 -10
1 1 2 1 2 2 3 4 4 3 4 5 3 -1 -3 -3 -1 -2 -2 -2 -1 -1 0 1 1 0 -0 -0 -1 -2 -1 1 1 0 1 0 -1 -3 -4 -3 -3 -3 -4 -3 -0 -0 -1 1 1 -1 1 2 1 2 4 2 2 3 3 4 4 5 5 5 6 5 4 6 6 4 4 2 2 1 -4 -5 -4 -5 -6 -6 -7 -7 -8 -8 -9 -9 -9 -10
1 2 2 1 2 3 4 4 3 3 5 4 0 -2 -3 -3 -2 -2 -3 -2 -1 -1 -1 -1 -1 -0 -1 -2 -1 -3 -3 -1 -1 -1 0 0 -1 -3 -4 -4 -3 -3 -3 -3 -1 -1 -1 0 1 -0 -1 0 2 3 3 1 2 2 2 3 3 3 5 5 5 5 5 6 6 6 5 2 0 -1 -4 -4 -4 -6 -6 -7 -8 -8 -8 -9 -9 -10 -10 -10
-0 2 3 2 2 3 3 3 1 2 3 -0 -3 -2 -3 -3 -2 -2 -3 -3 -2 -1 -1 -2 -2 -1 -2 -3 -3 -3 -3 -3 -2 -2 -1 -2 -2 -4 -5 -5 -4 -3 -3 -2 -2 -1 -1 -1 -0 -0 -1 0 1 -0 -2 -2 -1 -0 1 2 2 1 3 3 3 3 4 5 6 6 5 1 -3 -3 -4 -4 -5 -6 -6 -7 -8 -8 -9 -9 -9 -10 -10 -11
-1 3 3 1 2 3 3 2 -2 -4 -2 -3 -4 -3 -2 -2 -2 -3 -3 -3 -2 -2 -2 -2 -3 -2 -3 -3 -4 -4 -3 -3 -3 -3 -3 -3 -3 -4 -4 -5 -5 -4 -3 -1 -2 -2 -2 -2 -2 -2 -1 0 -1 -3 -4 -4 -3 -2 -2 -1 -1 -0 1 2 3 2 2 3 4 5 5 -0 -5 -4 -5 -6 -6 -6 -7 -7 -8 -8 -9 -9 -10 -10 -10 -11
0 4 3 0 2 3 2 0 -5 -7 -4 -3 -4 -4 -3 -2 -3 -4 -3 -3 -3 -2 -3 -3 -3 -4 -4 -3 -3 -4 -3 -3 -3 -4 -4 -4 -4 -4 -5 -5 -5 -4 -3 -2 -2 -3 -3 -3 -4 -4 -3 -2 -3 -5 -5 -4 -3 -2 -3 -3 -3 -2 -1 0 2 1 0 1 1 2 4 -1 -6 -5 -6 -7 -7 -7 -7 -7 -8 -9 -9 -10 -10 -10 -11 -11
1 2 1 0 1 2 2 -0 -5 -6 -4 -5 -6 -5 -4 -4 -4 -4 -4 -4 -4 -3 -3 -4 -4 -4 -5 -4 -3 -4 -4 -4 -4 -4 -4 -5 -5 -5 -5 -5 -4 -3 -3 -3 -3 -2 -3 -3 -4 -4 -4 -3 -4 -4 -4 -4 -3 -3 -4 -4 -4 -4 -3 -3 -2 -2 -2 -0 1 2 3 -2 -7 -6 -6 -7 -7 -8 -8 -8 -9 -9 -9 -10 -10 -10 -11 -11
-2 -2 -1 -0 1 2 2 1 -2 -4 -5 -5 -5 -4 -4 -5 -4 -4 -5 -5 -4 -4 -4 -4 -4 -4 -5 -6 -5 -5 -5 -4 -4 -5 -5 -5 -4 -5 -6 -5 -4 -4 -3 -3 -4 -3 -3 -4 -5 -5 -4 -3 -3 -3 -3 -3 -4 -4 -5 -5 -6 -5 -4 -4 -4 -4 -3 -2 -0 2 1 -3 -6 -6 -6 -7 -7 -8 -8 -8 -9 -9 -10 -10 -10 -11 -11 -12
-2 -2 -1 -2 -2 -1 -1 -3 -3 -4 -5 -4 -4 -5 -5 -4 -5 -5 -5 -5 -5 -5 -4 -5 -5 -5 -5 -6 -5 -6 -6 -5 -5 -6 -5 -5 -5 -5 -6 -6 -5 -5 -4 -3 -3 -4 -4 -6 -6 -5 -6 -5 -4 -4 -4 -4 -5 -5 -5 -6 -5 -5 -5 -4 -4 -4 -3 -3 -3 -2 -2 -5 -6 -6 -6 -7 -7 -8 -8 -8 -9 -9 -10 -10 -11 -11 -12 -12
0 1 -0 -1 -3 -5 -6 -7 -6 -3 -4 -4 -4 -7 -6 -4 -5 -6 -5 -5 -5 -5 -5 -5 -5 -5 -5 -5 -5 -6 -7 -7 -7 -6 -6 -6 -5 -5 -7 -6 -6 -5 -4 -3 -4 -4 -6 -7 -6 -5 -6 -6 -5 -5 -5 -6 -6 -6 -5 -5 -5 -5 -5 -5 -5 -6 -5 -4 -5 -5 -4 -6 -7 -6 -6 -7 -7 -8 -8 -9 -9 -10 -10 -11 -12 -12 -12 -13
-0 -0 -2 -1 -2 -4 -4 -6 -6 -4 -5 -5 -4 -6 -6 -5 -5 -5 -4 -5 -5 -5 -6 -6 -6 -5 -6 -6 -6 -6 -7 -8 -7 -7 -7 -7 -6 -6 -7 -7 -6 -5 -4 -4 -5 -5 -6 -7 -7 -7 -6 -6 -6 -6 -6 -7 -7 -6 -6 -6 -6 -6 -6 -5 -6 -6 -5 -6 -6 -6 -6 -7 -6 -5 -6 -7 -8 -8 -9 -10 -10 -10 -11 -12 -12 -13 -13 -14
-2 -2 -6 -4 -2 -3 -4 -5 -6 -5 -5 -6 -6 -6 -5 -5 -6 -5 -4 -4 -5 -5 -5 -6 -7 -7 -7 -7 -6 -7 -8 -7 -7 -7 -7 -8 -8 -7 -7 -6 -7 -6 -5 -6 -6 -6 -6 -7 -8 -8 -7 -7 -8 -8 -8 -8 -7 -6 -6 -6 -6 -6 -6 -6 -6 -6 -6 -6 -6 -6 -7 -7 -5 -5 -6 -8 -9 -9 -10 -10 -11 -12 -12 -13 -14 -14 -14 -15
-4 -4 -6 -7 -5 -5 -6 -6 -6 -5 -4 -5 -6 -6 -5 -6 -6 -6 -6 -5 -5 -6 -6 -6 -7 -7 -7 -7 -7 -7 -8 -7 -7 -8 -8 -8 -9 -8 -7 -6 -7 -7 -6 -6 -6 -6 -7 -7 -8 -9 -8 -7 -8 -9 -9 -9 -8 -7 -7 -7 -7 -7 -7 -7 -7 -6 -7 -7 -6 -6 -7 -7 -6 -7 -9 -11 -11 -10 -11 -11 -12 -13 -13 -14 -15 -15 -16 -16
-4 -3 -4 -5 -6 -6 -6 -6 -5 -5 -5 -5 -6 -6 -6 -6 -6 -6 -7 -7 -6 -6 -6 -7 -7 -7 -8 -8 -7 -7 -8 -8 -8 -8 -8 -9 -9 -9 -8 -7 -7 -8 -7 -7 -7 -7 -8 -8 -8 -9 -9 -8 -8 -9 -9 -9 -9 -8 -8 -8 -8 -8 -8 -8 -8 -7 -7 -8 -7 -7 -8 -7 -9 -10 -11 -12 -12 -11 -12 -13 -13 -14 -15 -16 -16 -16 -17 -17
-5 -5 -4 -4 -5 -5 -6 -7 -6 -5 -5 -6 -6 -7 -7 -7 -7 -7 -8 -9 -8 -7 -7 -7 -7 -8 -9 -9 -8 -8 -9 -9 -9 -8 -8 -9 -8 -8 -8 -8 -8 -8 -8 -8 -8 -7 -8 -8 -8 -8 -9 -8 -8 -9 -9 -9 -10 -10 -9 -9 -9 -9 -8 -8 -7 -7 -7 -7 -7 -8 -8 -8 -10 -13 -13 -13 -13 -13 -13 -14 -14 -15 -16 -16 -17 -18 -18 -19
-5 -5 -5 -4 -5 -6 -6 -7 -7 -6 -6 -6 -7 -8 -8 -7 -8 -8 -7 -8 -9 -9 -9 -8 -8 -8 -9 -8 -8 -9 -9 -9 -9 -8 -8 -9 -9 -9 -9 -9 -9 -9 -8 -8 -9 -9 -9 -9 -8 -9 -9 -9 -10 -10 -9 -9 -10 -10 -9 -9 -8 -8 -8 -8 -7 -7 -7 -7 -7 -8 -8 -9 -12 -13 -12 -13 -14 -14 -14 -15 -15 -15 -16 -17 -18 -19 -19 -20
Height
799 797 795 794 792 790 788 786 784 783 781 779 778 777 775 774 773 772 771 770 769 767 766 765 764 763 762 761 761 760 759 759 758 758 758 757 757 758 759 759 760 760 761 762 763 763 764 765 766 767 768 768 769 769 770 770 770 773 774 775 773 771 769 766 766 767 766 766 766 767 765 764 766 766 765 765 767 768 770 770 768 767 767 767 766 765 766 767
799 797 795 793 791 789 787 785 783 782 780 778 777 775 774 773 772 771 769 768 767 766 765 764 763 762 761 761 760 760 759 759 759 758 756 756 757 758 758 759 759 759 760 761 762 763 764 765 766 766 768 769 768 768 770 769 769 772 772 773 770 767 766 765 765 765 765 766 766 766 765 764 764 765 765 766 769 770 771 771 769 769 767 766 766 766 766 766
798 797 794 792 791 789 787 784 783 781 779 777 775 774 773 771 770 769 768 767 766 765 764 762 761 761 760 760 760 760 759 759 759 756 755 756 757 757 758 758 758 759 759 760 761 762 763 764 765 766 768 769 768 768 769 769 769 769 770 771 767 763 764 764 764 764 765 765 765 765 765 765 763 763 765 766 768 770 770 769 769 769 766 765 766 766 765 765
798 796 794 792 790 788 786 784 782 780 778 776 775 773 771 770 769 767 766 765 764 763 763 761 760 760 759 760 759 759 760 759 757 754 754 756 757 757 757 757 758 758 759 760 761 762 762 763 765 765 768 770 768 768 769 768 768 768 769 769 765 765 764 762 763 764 764 765 764 764 764 765 763 762 764 765 768 771 768 764 764 764 763 764 766 766 766 765
797 795 793 791 789 787 785 783 781 779 777 775 774 772 770 769 767 765 764 763 763 762 761 760 759 759 759 759 758 759 760 755 753 755 755 756 757 757 757 757 757 758 759 760 760 762 762 763 764 766 768 769 768 769 768 765 766 767 766 765 765 766 764 762 763 764 765 765 764 764 764 764 762 763 763 764 767 766 762 760 759 760 761 763 765 766 766 766
797 795 793 790 788 786 784 782 780 778 776 774 772 770 769 767 765 764 762 761 761 760 760 759 758 758 758 758 758 759 758 752 753 757 756 757 757 757 757 757 757 758 759 760 760 761 762 764 765 767 768 769 769 768 767 765 766 768 766 765 765 766 764 763 764 765 765 764 764 764 763 762 763 764 764 763 763 760 758 757 757 759 759 761 763 764 765 766
795 794 792 790 788 785 783 781 779 777 775 773 771 769 767 765 763 762 760 759 759 758 758 758 758 758 757 758 757 759 759 755 755 757 756 757 757 757 757 757 757 758 759 759 760 761 762 764 765 767 769 770 769 768 767 766 766 768 768 766 766 766 765 766 765 765 765 764 765 764 762 763 764 764 765 763 759 758 758 757 757 758 759 760 762 763 763 764
794 793 791 789 787 785 782 780 778 776 774 772 770 767 765 763 761 760 758 757 756 756 756 757 757 757 757 757 757 759 759 756 755 756 756 757 756 757 757 757 757 758 759 759 760 761 762 764 765 767 770 772 771 769 767 767 767 767 768 767 766 766 766 767 767 765 765 765 766 765 763 765 766 767 766 760 757 757 758 758 758 759 760 761 762 762 763 763
794 792 790 788 786 784 781 779 777 775 773 771 768 765 763 761 759 757 756 755 754 754 755 756 756 757 757 757 757 757 755 755 755 756 756 757 757 757 757 757 757 758 758 759 760 760 761 763 764 765 768 770 771 769 767 767 767 765 766 766 764 765 767 767 766 766 766 765 766 765 764 766 768 768 764 756 757 759 757 758 759 759 761 762 763 763 763 764
793 791 789 787 785 782 780 778 775 773 772 769 766 764 761 758 756 754 753 752 752 752 753 754 755 756 756 757 757 754 753 755 755 756 756 757 757 757 757 758 757 758 758 759 759 760 761 761 763 765 766 768 770 770 769 768 767 765 765 765 765 766 767 767 765 766 767 765 765 765 764 766 767 768 762 756 759 760 758 759 760 760 761 763 764 765 765 765
792 790 788 786 784 781 779 776 774 772 769 767 765 762 759 756 754 752 751 750 750 751 753 754 755 755 756 756 755 753 754 755 755 756 756 756 757 757 758 758 758 758 758 759 759 759 760 760 762 764 765 767 769 771 770 767 766 766 767 766 767 768 768 767 766 765 766 765 766 765 764 765 767 767 761 757 761 760 758 760 761 761 761 763 765 766 766 766
792 790 787 785 783 780 778 775 772 770 767 765 763 760 757 754 752 751 750 749 750 751 753 754 754 755 756 756 755 754 755 755 755 755 756 756 756 757 758 758 758 758 758 759 759 759 760 760 761 762 765 766 768 769 767 767 768 768 768 767 767 769 768 766 765 766 766 765 765 765 765 764 764 763 760 760 763 761 759 760 762 763 763 765 766 767 767 767
792 790 787 785 782 780 777 774 771 768 765 763 760 758 756 753 752 751 750 749 749 751 753 754 754 755 755 755 755 755 755 755 756 756 756 756 756 757 757 758 758 758 759 759 759 759 760 760 760 762 764 764 766 767 766 768 770 768 769 769 768 769 767 764 766 767 766 766 765 767 768 762 759 761 763 766 766 764 761 760 762 764 765 767 768 769 769 769
792 789 787 785 782 779 776 773 770 766 763 760 758 756 754 753 752 751 751 750 750 751 753 753 754 755 755 755 755 756 756 756 756 756 756 756 756 757 757 758 758 759 759 759 759 760 760 760 761 763 765 766 765 766 767 769 769 768 770 772 771 771 766 765 771 767 763 768 766 766 770 763 758 761 766 770 768 766 763 762 763 765 766 767 768 769 769 770
791 789 787 784 782 779 776 773 769 765 762 759 757 755 754 753 753 752 752 752 752 753 752 753 754 755 756 755 756 756 756 756 756 756 756 756 757 757 757 758 758 759 759 759 760 760 760 760 761 763 766 767 766 766 769 770 770 770 770 773 776 774 767 763 770 768 761 767 769 766 769 765 760 762 767 773 770 767 766 764 765 766 767 767 768 770 770 770
790 788 786 784 782 778 776 772 769 765 761 758 756 755 754 753 753 753 753 753 753 753 753 753 753 754 755 755 756 756 756 757 757 757 757 757 757 757 758 758 759 759 759 760 760 761 761 761 764 767 766 767 768 767 771 773 773 773 772 772 775 775 771 765 766 771 766 765 768 766 764 760 761 765 770 775 771 767 767 766 767 768 769 770 770 772 772 772
790 788 786 783 781 778 775 772 768 764 760 758 756 755 754 754 754 754 753 753 753 753 754 753 754 755 755 756 757 758 759 758 757 757 757 757 757 757 758 759 760 760 760 761 761 761 762 763 768 769 767 770 769 768 773 777 775 776 776 774 776 776 775 769 762 770 773 767 767 768 765 759 758 765 769 774 773 767 767 768 769 772 773 773 774 776 777 777
789 787 785 783 781 778 775 772 768 763 760 758 755 755 755 754 754 754 754 754 754 754 753 754 755 752 752 758 760 761 761 759 758 758 757 758 758 758 758 759 760 760 761 762 762 763 764 767 770 769 769 772 771 769 768 768 766 770 773 772 776 778 777 772 761 767 774 769 768 770 770 765 759 763 766 772 775 769 768 771 772 776 777 777 779 780 782 782
788 786 784 782 780 777 775 772 767 763 760 756 755 755 754 755 755 755 755 754 755 755 754 757 759 753 754 760 762 761 761 760 759 758 757 758 758 758 759 759 760 761 763 764 764 765 765 769 772 770 769 770 768 765 759 758 757 760 767 769 771 771 774 774 767 771 775 771 772 770 770 768 761 761 764 771 775 771 770 773 777 781 781 783 785 786 787 788
788 785 783 781 779 777 774 771 768 764 760 756 755 754 755 758 755 754 758 759 761 764 762 764 765 762 761 763 762 760 760 760 759 759 759 758 758 759 760 760 762 763 764 764 764 767 767 768 769 765 765 766 765 763 763 764 762 761 766 769 769 766 767 769 767 773 777 769 769 772 771 769 764 763 768 773 774 773 774 776 782 787 788 791 792 792 793 794
787 785 783 781 779 777 774 772 769 765 762 757 754 757 764 768 762 761 766 764 765 768 766 766 766 764 764 763 762 761 760 760 760 760 759 759 759 759 761 762 763 765 766 766 766 768 769 768 765 761 761 763 765 767 768 767 766 764 766 767 770 770 766 767 768 774 778 770 767 774 774 768 766 765 771 776 774 779 785 784 790 795 797 799 799 799 799 799
787 784 782 780 778 777 774 773 770 768 764 758 757 764 773 776 772 772 774 768 765 767 766 765 765 764 764 763 763 762 762 761 761 761 760 759 759 760 762 763 763 765 768 768 767 769 772 768 761 761 764 764 766 770 768 766 767 767 769 770 770 773 772 769 772 776 776 771 767 773 772 766 765 768 774 779 780 792 800 797 801 803 803 805 804 804 804 803
786 784 782 780 778 776 774 773 772 769 765 762 765 771 775 776 775 776 776 771 766 765 765 764 764 764 764 763 763 763 762 763 763 762 761 760 760 762 763 764 764 766 767 767 766 768 769 765 761 763 764 763 767 770 768 768 770 767 769 769 766 774 772 760 767 776 777 774 770 771 770 764 762 766 780 789 790 800 807 805 808 808 808 811 811 810 809 808
786 783 781 780 777 775 774 773 772 770 768 769 771 774 776 776 776 775 776 775 769 765 764 764 765 765 764 764 764 763 763 765 765 763 763 761 762 764 763 764 766 766 768 766 766 766 762 762 767 767 763 761 764 770 771 770 771 770 768 765 762 767 767 762 768 774 776 777 774 772 765 760 759 761 777 793 798 804 809 809 811 813 814 815 814 814 813 813
785 783 782 780 777 775 773 773 773 772 772 771 773 775 776 775 776 776 775 771 766 765 765 765 765 765 765 764 763 764 765 766 765 764 764 763 764 764 763 765 765 765 767 768 770 767 762 764 768 766 766 763 761 768 771 768 771 771 766 762 758 756 759 768 773 771 773 773 772 771 762 757 761 766 781 793 800 810 814 815 817 818 819 817 817 818 817 817
785 784 782 779 776 774 773 774 774 773 773 773 775 776 775 775 775 776 773 761 758 765 766 765 766 765 765 765 764 765 764 765 766 765 764 764 764 764 764 766 766 767 768 768 769 765 763 767 766 762 765 766 762 765 767 767 769 769 765 762 760 759 760 767 769 766 766 767 772 775 763 757 759 769 792 802 806 816 817 818 822 822 822 821 821 822 822 821
785 784 782 779 777 774 773 776 775 774 775 775 775 775 775 775 774 775 769 754 756 767 766 765 767 766 766 766 766 764 762 764 765 765 765 764 765 764 764 766 766 767 770 770 766 764 764 765 765 763 763 767 766 763 763 765 765 764 768 768 763 761 760 762 764 763 766 770 776 778 768 762 759 768 796 806 806 817 821 822 826 825 825 825 825 826 825 825
785 783 782 780 778 776 776 777 776 776 777 776 775 774 774 773 774 774 762 751 761 769 768 768 766 766 767 766 767 766 766 767 765 765 766 765 765 764 764 766 767 768 773 771 763 766 769 764 764 764 761 764 763 762 764 762 760 765 775 775 769 767 764 764 766 767 777 774 766 772 775 769 762 771 793 797 799 816 825 827 829 829 830 829 830 831 829 829
785 783 782 780 779 778 778 777 777 778 777 776 774 772 773 774 773 769 757 756 767 772 771 769 765 768 770 767 767 769 769 769 768 767 766 765 765 765 766 768 770 769 772 772 764 765 770 768 769 766 761 760 762 769 770 760 759 769 779 775 773 778 776 777 775 770 778 777 763 765 772 765 758 769 785 785 795 817 826 831 833 833 835 834 835 836 834 833
784 783 781 780 779 778 777 777 778 777 776 775 773 772 773 773 768 761 758 764 769 773 773 770 771 776 776 768 767 771 771 771 773 770 766 767 766 766 770 772 772 769 770 772 767 767 772 773 774 769 764 764 768 774 774 767 766 770 772 768 770 777 776 780 782 775 777 775 764 764 769 764 756 772 798 802 807 822 826 832 837 836 839 839 839 840 838 836
784 782 781 780 779 778 778 778 776 776 776 773 772 773 771 770 765 758 763 772 773 775 776 777 781 782 782 780 775 776 776 774 776 772 768 770 771 773 774 771 771 769 767 768 765 768 771 768 769 771 769 769 767 769 774 775 774 768 764 762 765 773 777 780 782 783 780 769 770 781 782 771 758 776 816 826 824 828 828 835 841 841 843 843 842 842 840 838
783 782 781 781 780 779 779 779 777 775 774 773 773 773 768 763 760 762 771 774 775 782 786 787 789 788 790 791 786 788 786 779 779 779 778 780 784 794 792 788 790 774 764 771 769 764 764 764 771 771 770 772 764 763 773 776 773 768 764 764 767 776 787 784 780 791 786 770 786 801 787 774 775 796 824 831 832 836 835 840 843 844 846 845 844 843 841 840
783 782 782 781 780 780 779 779 777 774 773 773 772 771 767 758 761 778 788 784 783 794 797 793 794 797 795 789 791 799 793 785 785 784 784 785 790 802 802 805 810 787 774 783 777 764 759 764 775 770 768 776 770 763 767 769 771 769 765 765 767 777 789 786 787 799 788 773 792 803 786 772 779 807 831 833 836 840 840 843 844 845 846 845 845 844 842 842
782 782 782 782 781 779 779 777 776 774 773 772 770 768 764 761 776 795 801 802 803 801 800 799 798 798 796 794 799 803 793 789 794 789 784 783 787 799 804 808 813 801 792 789 779 775 765 760 772 775 773 780 777 773 770 767 770 771 768 768 766 767 770 771 776 778 770 778 795 793 783 773 772 806 834 834 838 842 841 845 844 845 846 844 846 845 843 844
781 782 782 781 780 779 778 775 774 773 771 772 771 767 763 770 795 810 809 814 814 804 802 804 799 792 794 802 807 807 797 791 796 793 789 795 802 811 817 817 818 815 805 788 782 791 782 769 780 789 786 785 782 781 781 774 767 771 776 774 769 764 760 768 782 781 773 783 795 789 795 808 811 828 842 836 840 844 842 846 846 845 847 845 847 847 845 846
781 782 781 781 779 778 776 774 773 772 772 771 766 770 785 798 813 820 816 815 814 811 806 799 795 793 795 802 807 810 804 797 799 796 795 809 817 821 824 824 825 825 818 806 798 800 792 781 786 789 785 787 788 783 784 778 767 772 778 773 775 777 768 769 787 805 798 779 779 784 799 827 832 828 837 839 841 844 843 846 847 847 848 848 848 849 848 849
781 782 781 781 779 776 775 773 772 771 772 771 768 788 817 823 820 821 819 815 814 816 808 795 796 803 805 807 810 815 810 802 803 801 800 811 819 825 830 827 827 828 829 824 813 811 808 793 789 793 785 783 792 788 783 784 778 778 779 773 778 782 777 771 773 796 803 778 773 780 786 808 809 805 831 844 838 844 846 846 849 849 849 849 850 851 851 851
781 782 781 781 779 776 775 772 772 772 772 776 790 811 828 825 820 821 822 819 816 815 811 804 806 811 815 814 817 824 817 804 808 810 806 811 820 831 836 832 828 828 830 827 816 817 819 802 793 802 798 788 791 786 779 785 785 783 783 780 780 776 772 774 769 779 789 770 763 772 780 794 792 797 830 838 833 843 847 847 850 850 851 852 852 853 853 853
782 781 780 781 778 775 774 771 773 773 771 784 806 820 825 824 822 822 823 821 818 815 815 817 816 816 821 823 823 829 826 816 818 820 814 815 824 834 839 837 832 828 828 827 821 819 819 811 800 800 804 797 790 788 790 796 792 787 787 784 787 784 774 775 774 772 774 760 753 759 769 789 800 810 828 829 831 844 846 848 852 850 854 854 853 856 854 854
783 781 780 780 777 775 775 772 775 780 785 804 820 821 822 824 822 822 823 821 819 818 819 822 822 820 826 832 831 832 833 830 827 825 824 825 831 836 840 842 837 832 828 823 824 823 819 820 812 803 804 799 798 808 816 818 812 805 799 791 793 794 784 783 785 781 775 763 757 752 758 795 822 822 825 830 837 845 846 850 853 852 855 855 855 858 855 856
783 780 780 780 777 776 774 776 792 806 811 820 825 823 822 822 822 824 824 821 821 821 822 825 827 827 830 833 835 836 834 832 832 833 836 835 835 838 841 843 842 837 830 823 826 828 824 827 825 820 815 806 812 826 828 827 826 821 818 813 811 807 797 789 784 786 788 776 770 759 757 801 836 829 831 840 841 845 848 849 852 854 856 856 857 858 857 857
783 781 783 782 778 776 776 791 816 825 820 822 826 826 824 823 826 829 826 825 825 823 825 829 831 835 836 833 834 838 835 834 837 839 842 843 842 842 843 844 842 838 833 830 831 831 831 834 833 831 826 817 822 830 830 829 826 823 824 824 823 820 815 804 788 792 799 788 788 782 770 805 841 835 837 846 843 849 851 850 853 855 856 858 857 858 858 858
788 787 786 784 780 778 780 797 821 827 825 829 833 831 829 828 830 831 830 830 829 827 828 833 834 836 841 839 835 838 839 838 840 841 843 845 845 846 846 845 841 837 835 835 833 831 831 833 833 832 829 826 827 828 829 828 825 826 830 831 833 830 828 826 817 817 818 800 791 781 775 812 845 840 840 846 846 852 851 851 856 855 856 858 857 858 859 858
796 794 791 786 779 777 782 796 814 825 829 831 830 830 832 834 834 833 834 834 834 833 833 837 838 836 841 844 841 843 844 839 843 847 846 845 845 845 848 847 842 840 839 839 839 837 834 837 842 841 833 825 822 823 826 827 828 833 837 838 841 837 832 833 828 828 826 810 796 783 784 820 843 839 843 847 846 851 852 852 855 854 857 859 857 859 859 859
796 793 794 793 784 784 797 810 815 822 831 831 831 837 837 834 837 838 838 838 838 839 838 840 842 840 843 847 846 849 849 844 846 850 849 848 846 845 848 848 845 844 842 840 840 839 843 849 849 845 840 832 827 829 833 837 841 842 841 841 841 838 837 834 831 832 826 817 816 813 813 832 844 841 844 845 846 851 852 853 854 855 857 858 859 861 860 861
791 789 795 799 797 800 813 823 821 820 828 828 831 844 844 836 840 841 838 838 840 840 841 843 843 842 844 846 846 850 854 854 854 852 852 851 846 848 852 850 848 846 842 840 840 842 850 856 851 846 846 843 839 839 842 846 849 844 840 841 841 840 839 837 839 843 837 829 832 831 829 838 845 843 843 844 846 849 852 854 856 856 858 860 861 862 862 863
793 798 805 803 803 809 816 824 825 824 828 829 831 842 844 839 842 840 836 839 841 841 844 848 848 846 848 849 849 853 859 860 857 855 857 857 853 853 855 852 850 847 843 843 844 846 851 854 854 854 850 847 849 849 850 853 852 846 842 841 840 840 840 841 842 840 838 838 836 836 841 844 841 838 840 845 848 849 853 856 856 858 860 861 863 863 864 866
797 806 817 811 808 817 820 824 829 829 829 833 838 843 842 842 845 843 839 840 841 843 844 849 853 853 854 855 852 855 860 860 858 857 859 863 861 856 853 851 852 849 847 848 847 849 853 853 857 860 853 850 857 857 855 856 851 846 845 842 840 841 841 843 843 838 840 843 836 837 847 845 835 835 842 848 851 852 854 856 858 861 861 862 864 865 865 867
804 809 818 816 817 827 831 830 831 830 828 831 838 843 843 844 847 846 845 843 843 847 846 849 855 855 856 857 854 856 861 860 859 860 861 865 865 862 857 853 853 852 851 851 850 852 857 855 856 863 858 853 858 860 859 858 852 848 848 845 844 846 844 844 844 841 844 846 840 839 844 841 836 840 848 856 857 856 858 860 861 864 864 865 867 866 866 868
803 806 812 816 823 830 833 833 831 829 831 834 838 844 846 848 848 848 851 850 848 850 850 851 856 858 860 860 856 857 863 863 863 863 863 865 865 865 863 857 857 857 854 854 854 854 858 858 855 861 861 853 854 859 858 858 857 854 851 849 848 849 849 849 848 845 845 845 841 841 844 843 846 852 856 859 860 859 860 862 864 867 868 869 870 869 869 869
802 805 806 810 822 830 832 837 837 833 836 840 843 847 849 850 852 852 855 858 855 853 854 855 857 860 864 863 860 862 866 866 866 864 863 865 864 863 863 861 861 861 858 858 858 856 859 860 858 859 856 851 856 859 856 858 862 858 853 851 851 850 848 845 843 841 842 841 838 841 843 842 850 859 860 861 862 862 863 865 867 868 869 871 872 872 872 872
803 806 805 807 821 833 836 840 841 837 839 843 846 851 851 851 856 855 853 858 860 859 859 859 858 859 862 862 862 864 865 864 865 863 863 865 864 863 864 863 862 863 862 862 864 866 866 862 863 863 855 853 862 864 860 859 852 844 846 847 845 845 845 842 841 839 839 840 840 841 841 844 854 860 859 860 864 864 865 868 868 868 870 871 872 873 874 874
Wind_Speed
19 19 20 20 20 21 21 21 21 21 21 21 20 19 19 18 18 18 19 18 17 18 18 17 16 15 13 11 9 9 9 4 6 10 8 7 9 7 6 7 6 5 6 6 7 7 5 2 3 6 5 3 2 2 3 2 2 2 2 3 3 3 3 2 3 2 1 2 1 3 5 7 4 3 3 2 2 3 3 3 2 1 3 4 4 1 4 3
19 19 20 20 20 21 22 22 22 22 22 21 20 20 20 19 19 19 19 18 17 17 17 17 15 14 12 9 8 8 7 3 4 7 11 8 7 7 6 6 5 5 6 5 8 9 6 3 4 6 3 2 2 3 4 3 2 3 2 3 4 3 2 1 2 1 1 2 2 3 4 5 3 4 4 3 4 6 6 4 3 3 5 5 7 7 3 2
20 20 20 21 21 22 23 23 22 22 22 22 21 21 21 20 20 21 20 18 18 16 16 16 14 13 10 7 7 5 5 2 2 6 11 10 7 7 6 6 5 5 5 5 7 9 7 7 8 6 2 1 1 3 5 3 2 3 2 3 4 3 1 2 2 1 2 3 2 3 3 4 3 4 4 3 4 6 8 7 6 8 9 6 6 8 8 3
20 20 21 21 22 23 23 23 22 22 22 22 22 21 21 21 22 22 21 19 18 17 16 15 13 11 7 5 5 4 3 2 3 3 8 10 7 6 6 5 5 5 5 6 7 8 7 7 7 4 1 1 1 0 4 3 2 2 3 3 2 1 1 3 3 3 4 4 3 2 2 3 3 3 3 4 4 4 8 8 9 10 9 7 5 5 7 5
21 21 22 21 22 23 23 23 23 23 23 22 22 22 22 22 22 22 21 20 18 17 15 14 13 9 5 4 3 3 0 1 3 3 10 8 6 5 4 4 5 6 6 6 7 8 7 6 5 3 1 2 2 0 3 4 2 1 2 0 0 1 2 4 1 2 3 2 3 3 3 3 2 2 3 5 5 4 4 6 9 8 6 6 6 5 5 4
21 22 22 22 23 23 23 23 23 24 24 23 23 23 23 23 23 22 21 21 19 17 15 13 11 6 4 3 1 0 2 1 1 6 8 5 4 3 3 4 5 7 6 6 7 7 5 4 4 4 2 2 2 2 1 2 2 2 2 2 0 2 1 3 3 2 0 1 3 3 2 2 4 1 1 4 6 2 1 1 5 5 5 7 6 5 5 6
20 21 22 22 23 23 23 24 24 24 24 24 25 25 25 24 23 22 22 21 20 17 14 12 8 4 3 2 2 3 1 2 1 7 5 3 3 3 4 5 7 8 6 6 7 5 5 5 5 4 3 1 3 3 1 0 2 3 3 1 2 1 2 3 3 3 3 1 4 2 1 2 3 2 2 4 7 4 1 2 2 1 4 6 5 5 6 6
21 22 22 23 23 24 24 24 25 25 24 25 26 26 25 24 24 24 22 20 19 16 14 9 5 4 4 4 4 3 2 2 4 6 4 2 3 3 5 6 7 9 6 6 6 6 5 6 6 4 3 4 2 2 1 0 1 3 4 2 1 1 2 4 3 4 5 1 3 1 2 1 3 2 1 6 7 4 2 3 3 4 4 4 4 5 6 5
21 21 22 23 24 25 25 25 26 25 25 26 26 27 26 25 25 25 23 21 18 14 11 5 4 5 5 4 5 1 3 4 5 4 3 2 2 2 4 5 8 9 6 4 5 7 6 5 6 4 5 5 2 1 2 2 3 4 4 3 1 2 4 4 2 3 4 2 2 2 2 3 3 0 2 8 4 1 1 3 3 4 5 3 3 4 4 5
21 22 23 24 25 25 25 26 27 27 27 27 26 26 26 26 26 24 21 17 12 9 6 4 6 6 6 3 5 1 3 6 5 3 3 2 1 2 3 4 6 8 7 4 5 8 5 5 6 4 4 3 4 2 1 4 3 3 3 3 3 2 4 2 2 2 3 2 1 0 3 4 3 1 3 6 4 1 3 1 3 4 4 3 2 1 2 3
22 23 23 24 25 25 27 27 28 29 28 28 27 25 26 26 23 19 15 10 6 4 4 5 7 7 5 3 5 3 3 6 4 3 2 1 1 2 2 3 4 6 6 3 4 7 5 6 8 5 1 2 4 2 1 4 2 2 3 1 4 3 5 2 0 3 2 1 1 3 3 5 2 0 5 5 6 3 3 2 2 2 2 2 3 2 2 1
23 24 24 25 25 26 27 27 29 30 30 29 26 26 27 22 16 13 9 6 3 1 4 6 7 7 4 2 2 3 4 5 3 3 2 1 2 2 2 2 2 3 5 3 4 7 6 8 11 6 3 3 4 2 2 2 2 1 3 1 6 5 5 5 2 2 1 2 2 3 4 6 3 4 6 4 7 6 4 4 3 1 0 1 2 2 2 2
23 24 25 25 25 26 27 27 30 31 30 28 26 28 24 14 10 9 7 4 4 7 6 5 6 6 3 1 1 3 4 3 2 3 2 1 2 2 3 3 2 1 3 4 5 6 6 9 12 7 3 4 2 2 1 3 3 1 2 1 3 5 5 5 2 2 4 2 1 2 3 5 5 7 6 5 6 7 5 2 3 3 2 2 2 2 0 1
23 24 24 25 26 26 27 28 30 31 30 27 28 27 16 7 8 7 5 5 7 8 5 5 6 4 2 1 1 3 3 3 3 3 3 2 3 3 4 3 3 2 3 5 6 6 5 7 8 4 1 2 1 0 4 5 2 1 1 0 1 1 5 6 1 5 6 2 1 4 4 6 5 8 5 5 5 1 4 5 3 4 3 3 3 2 1 1
24 24 25 25 25 26 27 29 30 31 28 26 28 21 8 5 6 5 6 6 6 5 4 5 6 4 2 2 1 3 3 4 3 4 5 3 3 3 3 5 5 5 5 6 5 5 5 6 6 3 1 1 2 3 2 4 3 1 1 2 1 3 5 7 2 7 8 2 2 6 4 7 6 7 5 6 4 3 5 6 4 5 4 4 4 3 3 3
23 24 25 25 26 27 27 28 30 30 26 26 25 12 5 5 4 4 4 3 3 3 3 4 5 5 3 1 2 4 3 4 4 5 4 5 3 3 4 5 5 5 6 5 4 4 4 4 3 2 2 2 3 4 3 1 2 2 1 3 2 3 3 5 3 5 5 2 1 5 4 4 2 3 5 6 4 4 2 4 5 5 5 4 4 4 4 5
23 24 25 25 26 27 27 28 28 28 25 25 19 5 4 5 3 3 3 3 3 2 3 3 4 4 2 1 3 2 3 4 5 4 3 4 4 3 5 4 3 4 5 5 4 3 3 3 1 0 2 2 3 5 3 3 4 1 1 3 3 3 3 3 3 3 1 3 4 6 6 6 4 3 4 6 6 6 4 4 5 4 5 5 4 5 6 7
23 24 25 26 26 27 27 27 27 27 26 24 14 1 4 4 5 4 4 4 4 4 5 3 2 2 1 2 2 3 5 5 6 5 2 3 4 2 4 3 3 4 5 4 2 2 2 2 2 0 1 1 3 5 6 6 6 7 6 5 3 1 3 4 3 2 3 3 5 5 7 10 10 8 3 4 6 7 4 3 3 5 6 6 6 7 8 9
23 24 25 26 27 26 27 25 24 25 27 22 9 2 4 2 3 4 6 6 3 2 1 2 2 1 1 2 3 5 6 6 6 4 3 4 3 3 4 4 4 5 4 1 0 2 1 3 2 2 4 5 7 10 10 5 6 10 7 4 4 3 4 4 4 4 3 4 5 8 7 9 12 11 5 4 5 6 5 5 5 7 7 7 8 8 9 10
23 24 25 26 26 26 26 23 21 24 26 19 5 3 2 2 2 2 7 7 2 1 0 2 1 0 2 2 4 6 4 3 3 3 6 5 2 3 3 3 5 4 3 4 3 2 3 3 4 6 6 8 10 9 5 3 3 6 6 4 5 5 5 4 3 5 1 4 5 7 7 8 11 10 5 3 6 7 8 8 8 8 8 8 9 9 10 10
23 24 25 26 26 26 25 20 18 21 20 13 6 5 3 2 2 1 4 4 2 1 0 3 2 1 3 2 5 5 1 1 3 4 7 6 2 2 1 2 4 1 1 3 2 2 3 5 8 6 6 8 7 5 4 2 3 4 5 5 5 5 5 5 3 4 1 3 3 2 5 10 10 8 4 2 6 7 8 8 7 8 9 8 9 10 10 9
23 24 25 26 25 25 23 15 14 18 16 16 17 10 3 2 2 1 1 2 4 1 1 3 1 2 4 2 3 3 2 3 2 4 7 6 3 2 1 2 4 2 1 2 2 2 2 6 6 4 4 4 4 5 5 3 2 4 2 4 3 4 3 4 2 3 1 3 3 1 5 9 9 7 3 4 6 6 7 9 8 9 10 10 10 11 11 11
23 24 24 26 25 25 21 11 9 16 20 23 20 9 3 5 2 2 1 1 4 3 1 1 2 2 4 2 2 2 3 3 0 3 8 6 1 1 1 3 3 2 2 3 4 4 4 5 4 4 6 6 3 3 6 3 2 3 3 4 3 2 2 3 3 1 2 0 1 3 3 6 6 3 4 6 6 8 8 11 11 11 12 12 11 11 12 13
23 24 25 25 25 25 17 7 8 14 19 22 20 11 5 4 3 3 1 2 2 3 0 0 1 0 2 2 3 3 2 1 1 2 7 5 1 1 2 3 3 2 2 4 4 3 4 2 1 4 6 7 4 3 6 5 4 4 4 5 3 3 5 3 2 1 2 2 1 3 2 5 5 2 4 4 6 9 9 11 13 12 11 10 10 12 13 13
23 23 24 24 24 22 10 4 10 10 9 13 16 13 5 1 1 2 1 3 1 3 1 1 1 1 1 1 3 1 1 1 0 2 4 4 1 0 1 2 2 2 3 2 3 4 6 2 4 5 3 6 6 4 6 7 5 4 5 8 6 6 7 3 3 3 3 2 2 2 1 4 5 1 2 1 6 9 9 12 13 12 11 11 11 12 12 11
23 22 23 23 22 17 3 1 11 9 4 7 12 13 5 1 2 2 1 4 2 2 2 1 0 1 3 2 3 1 1 2 1 2 3 4 0 1 1 0 1 1 3 3 2 3 3 1 3 5 4 5 5 4 5 7 5 3 4 7 8 6 7 7 6 4 2 4 3 2 4 5 5 4 2 2 7 9 9 13 13 11 11 11 10 11 11 11
22 21 22 20 18 14 4 1 10 8 3 6 15 15 6 2 3 3 1 5 3 1 1 1 0 2 3 3 3 1 1 3 2 1 3 3 3 1 1 1 0 0 1 2 0 1 1 2 3 4 4 4 5 4 5 9 6 2 3 5 8 7 7 8 8 5 2 3 2 2 3 2 4 2 0 4 9 9 10 12 12 11 11 11 11 11 11 11
21 21 20 17 14 13 7 2 7 7 5 12 17 14 5 2 2 2 4 3 2 1 1 2 1 2 3 3 4 3 0 3 2 2 3 3 3 2 1 1 3 1 1 3 2 3 0 2 2 3 3 3 4 3 5 10 5 2 1 4 6 5 6 5 6 3 1 1 2 4 2 3 5 4 1 4 7 8 9 10 10 10 11 11 11 12 12 11
21 21 18 14 9 9 7 4 6 9 13 16 16 12 3 2 1 3 5 1 1 1 1 1 2 3 5 4 4 3 2 2 2 3 5 3 3 3 2 1 3 3 1 2 3 3 0 1 1 3 3 2 2 2 2 6 4 2 4 6 6 6 5 4 4 3 3 1 5 7 5 3 4 4 1 3 5 5 5 7 8 9 10 10 11 11 11 10
22 19 16 11 8 10 7 3 9 16 17 16 14 7 2 3 3 5 2 1 1 1 0 2 2 3 6 5 4 5 4 2 2 3 3 1 3 5 2 1 4 3 0 3 1 3 2 2 2 2 1 2 3 2 2 2 3 5 5 6 7 6 4 4 2 3 3 3 7 8 7 4 4 3 0 2 4 3 4 5 6 8 10 10 9 9 9 8
21 17 12 9 10 13 8 4 15 19 16 14 8 1 3 1 4 6 1 2 1 3 2 3 3 4 6 5 3 5 5 4 5 4 3 3 4 6 4 1 3 3 2 4 2 3 4 2 1 1 1 1 3 3 4 2 3 5 4 5 5 4 4 4 4 3 2 6 5 3 4 5 4 4 1 4 5 6 5 5 6 7 8 8 7 7 8 8
20 12 7 8 10 14 11 11 19 18 15 11 2 3 3 3 3 1 2 3 2 3 3 2 4 4 6 4 3 5 4 4 5 4 3 2 3 5 4 2 2 2 3 2 2 4 3 2 1 2 2 3 2 3 4 4 3 4 4 5 4 2 3 1 3 0 3 6 2 2 1 3 3 2 4 6 7 8 7 6 5 6 5 6 6 7 7 8
16 5 4 7 9 14 16 17 18 15 13 7 1 3 6 4 1 1 2 3 1 2 2 2 4 4 4 4 4 5 3 2 4 3 1 2 4 3 3 6 4 1 1 1 1 4 3 3 4 2 2 4 2 3 1 1 0 3 4 5 4 2 2 3 4 1 4 4 2 2 1 1 3 1 6 7 8 7 6 6 5 5 5 5 6 6 7 8
10 3 3 7 9 15 19 18 15 14 11 4 2 5 5 1 2 1 3 3 2 3 3 2 4 4 4 3 3 5 2 2 5 5 4 3 4 2 3 8 9 3 1 1 1 1 1 4 3 2 1 3 3 1 2 3 3 3 3 5 4 5 5 5 4 3 4 2 2 2 1 2 3 3 7 8 8 7 6 5 4 5 4 4 5 6 8 9
4 4 3 8 12 18 20 16 14 12 7 3 5 6 3 3 2 1 2 3 2 5 4 2 2 4 5 3 3 5 2 1 5 5 4 4 3 2 3 6 8 6 2 1 1 1 0 4 4 3 2 2 4 2 1 3 1 2 2 4 2 5 4 2 4 4 3 1 1 2 1 1 2 5 6 7 7 6 5 5 4 5 5 5 6 7 8 9
1 5 3 10 17 23 21 15 12 9 4 4 7 4 3 3 1 1 1 2 1 3 5 4 5 4 4 4 4 6 4 2 5 5 4 3 3 3 3 2 5 6 3 1 1 1 1 3 4 4 2 2 2 3 1 1 2 0 2 3 3 2 6 3 2 1 3 1 3 3 2 1 3 3 4 7 6 5 5 4 5 5 6 6 7 7 8 8
3 4 2 10 23 26 19 14 10 5 3 5 6 3 2 2 1 1 2 3 1 1 3 3 3 3 2 3 3 7 6 3 4 4 2 2 3 4 4 2 3 5 4 1 1 1 1 4 4 3 2 2 1 1 2 2 2 3 2 3 0 1 4 3 2 3 2 4 4 2 5 5 4 3 6 9 7 5 5 4 5 5 6 7 7 7 8 8
2 1 1 10 26 24 15 12 7 2 5 6 5 3 2 0 1 1 3 2 1 2 3 2 1 1 2 1 2 5 5 4 4 4 2 1 2 3 3 2 3 6 5 2 0 1 1 3 5 3 3 6 5 1 1 3 2 2 3 1 2 2 1 2 3 2 2 5 5 3 3 4 4 4 8 11 10 8 5 4 5 6 7 7 6 7 7 8
1 1 0 13 26 19 11 9 5 5 7 5 3 2 2 0 1 2 3 3 1 2 3 1 1 2 2 1 1 3 4 3 2 3 2 1 2 3 4 2 4 8 8 3 2 2 2 1 5 4 3 5 5 3 1 4 5 3 2 3 3 3 3 2 3 2 3 5 6 5 3 1 1 3 9 11 10 9 6 5 5 5 6 6 5 6 7 7
2 1 1 17 26 12 6 9 8 7 6 3 2 1 0 1 1 3 5 4 2 2 2 1 1 2 2 1 1 1 3 2 2 2 1 2 2 2 5 3 3 8 9 4 3 2 3 2 3 5 6 3 3 2 1 2 3 4 4 3 3 2 1 1 1 2 4 3 4 5 4 1 2 2 8 11 10 8 7 6 4 4 5 5 5 6 6 6
4 3 3 21 24 6 5 11 9 5 3 3 1 0 1 2 1 4 7 5 4 2 2 3 3 2 1 1 2 1 2 2 2 2 1 3 3 2 4 3 3 5 5 4 4 2 2 1 2 3 4 2 1 1 2 1 1 1 2 2 2 2 1 1 4 1 2 2 4 4 4 1 3 3 7 10 9 7 7 6 4 4 4 4 5 6 6 6
4 3 5 23 21 5 7 8 3 3 3 2 2 1 2 3 2 4 6 5 4 3 3 4 3 3 2 1 1 1 2 1 1 2 1 1 3 1 3 5 4 2 1 2 3 1 1 2 1 3 2 3 3 1 1 2 1 2 2 2 2 1 1 1 4 2 2 2 1 2 3 1 3 5 7 8 7 7 6 5 4 4 4 4 5 6 6 7
3 2 6 22 17 3 9 7 2 4 3 1 1 2 3 3 2 4 4 5 4 3 4 3 2 2 2 1 2 2 3 1 0 3 2 0 2 1 4 8 7 3 2 2 2 1 2 1 1 3 3 4 5 3 2 1 1 3 2 3 3 2 2 0 2 1 1 2 1 2 4 1 2 4 7 7 7 7 5 5 5 3 3 4 5 5 6 7
2 3 4 21 17 4 5 4 2 3 2 1 3 4 4 3 3 3 3 4 3 2 3 2 2 2 1 2 3 2 3 2 0 2 2 1 1 2 5 8 8 5 3 1 1 1 1 1 2 3 5 6 5 5 5 4 3 2 1 2 3 3 4 2 1 1 1 1 2 3 4 2 4 5 6 6 6 6 5 5 4 3 3 3 4 5 6 7
3 1 3 16 21 11 4 3 5 5 2 3 5 4 4 3 2 1 2 3 3 2 3 1 1 2 2 3 4 3 4 3 1 2 2 1 2 1 5 8 7 3 2 4 2 2 0 1 2 1 3 4 3 2 3 3 2 2 1 2 2 4 5 2 1 1 2 1 4 1 1 3 4 5 5 5 5 5 5 4 4 3 4 3 4 5 5 6
2 2 2 8 13 9 3 1 4 5 4 4 4 2 2 3 2 2 2 3 3 2 3 2 2 3 4 5 5 4 4 3 1 1 2 2 3 1 4 6 4 2 5 7 6 4 2 1 2 4 5 5 5 5 3 1 1 3 3 4 2 1 1 0 0 1 1 2 3 0 2 3 2 4 5 4 3 4 4 4 3 3 4 4 4 4 5 6
2 2 1 2 4 5 5 5 5 4 3 3 3 0 1 2 2 3 2 2 2 3 4 3 4 4 4 4 3 2 3 4 3 2 1 2 2 4 5 4 3 5 7 7 5 3 3 1 1 4 5 6 4 4 3 2 2 5 6 6 4 2 0 2 3 4 1 3 3 0 5 2 3 3 3 3 3 2 3 3 2 2 3 4 4 4 5 6
3 2 1 1 1 2 3 3 3 5 5 4 3 2 2 3 3 2 2 1 2 3 3 3 5 5 3 3 3 1 3 3 3 2 1 2 3 5 7 4 3 6 7 5 3 3 3 3 2 3 4 6 3 4 4 1 4 5 5 6 6 4 2 3 6 5 3 1 5 1 3 6 7 1 2 3 3 2 2 2 3 3 4 5 5 6 6 6
3 3 1 3 3 2 1 2 3 5 6 5 3 3 3 3 3 1 1 2 4 4 3 3 3 4 3 3 5 2 1 2 2 2 1 1 2 2 4 4 2 4 6 4 3 2 4 2 1 2 3 6 4 5 4 3 4 4 5 6 5 5 5 5 5 3 3 5 6 4 6 9 5 1 4 5 3 3 4 3 3 3 4 5 7 7 7 7
2 3 1 3 5 2 1 3 4 5 5 4 3 3 3 3 2 2 3 3 1 3 4 3 1 2 4 4 5 3 1 1 1 3 1 1 2 0 0 1 0 3 5 4 3 2 2 1 0 3 2 6 5 4 3 4 3 4 6 6 5 6 6 4 4 3 3 5 7 6 8 6 1 3 5 5 3 3 4 3 2 2 2 2 4 6 7 8
3 3 4 6 4 3 2 3 3 4 3 3 2 2 2 1 1 1 3 3 2 1 2 3 2 2 3 5 5 2 2 2 2 3 1 1 2 1 0 0 1 3 4 2 2 3 2 1 3 4 3 6 5 4 4 2 2 4 8 8 7 6 4 3 4 4 4 5 6 7 6 3 1 2 3 3 3 2 2 2 1 1 2 1 1 3 5 7
5 4 4 6 4 3 2 2 3 3 2 1 2 1 0 2 3 2 3 2 4 4 2 4 5 3 4 5 3 2 4 3 4 4 2 1 1 2 1 1 0 1 1 1 2 2 2 1 1 2 2 5 4 4 4 4 4 6 6 6 8 7 5 5 5 5 5 5 5 6 4 1 2 3 3 3 3 1 0 1 1 1 2 1 1 2 4 6
Wind_Direction
347 346 345 344 343 342 341 341 339 338 336 335 336 334 333 332 330 329 327 324 323 321 321 322 320 322 320 316 316 310 318 303 207 191 193 208 208 197 186 198 199 213 231 222 200 177 163 152 129 140 148 157 194 178 160 169 144 159 203 222 233 202 207 178 180 198 120 356 319 198 200 191 194 171 161 102 151 185 180 198 216 243 255 267 280 124 102 61
346 345 344 343 342 341 340 338 337 337 335 335 335 332 332 330 328 327 326 324 322 320 318 319 318 320 317 312 307 306 326 305 217 220 213 198 192 190 187 204 212 233 232 209 202 180 159 179 158 143 145 167 198 171 163 166 169 194 207 224 234 196 199 203 148 58 34 314 294 226 226 223 192 159 170 177 188 194 202 212 202 238 249 251 267 267 254 87
344 344 343 342 341 339 338 337 336 335 334 334 333 331 330 328 327 325 324 323 321 321 317 317 316 316 315 302 299 303 325 317 263 262 219 188 174 183 193 214 222 225 203 183 193 184 178 180 164 151 144 200 207 168 179 186 178 199 215 228 231 192 204 240 158 126 257 262 275 243 219 236 214 144 167 196 171 187 211 214 196 217 233 229 240 259 264 264
344 343 342 341 339 338 336 336 336 334 333 333 332 331 330 327 326 324 323 322 320 320 315 314 313 311 310 290 290 289 313 331 289 252 174 169 177 187 199 213 209 193 173 167 171 170 171 158 153 152 126 198 287 138 187 190 170 187 202 222 244 152 262 248 179 181 236 243 230 220 155 215 221 150 176 165 146 212 225 218 213 219 219 215 220 241 257 264
343 341 341 340 339 338 336 337 335 334 333 333 332 330 328 326 324 323 321 320 319 318 315 313 310 306 293 275 284 283 312 349 294 135 133 153 180 188 194 204 201 181 163 165 159 148 145 129 126 123 118 195 199 179 205 187 149 204 206 170 186 118 271 261 237 207 225 232 201 169 170 195 147 147 194 172 180 231 238 220 217 221 205 198 208 212 230 234
342 340 341 340 340 338 337 337 335 334 332 331 330 328 326 324 322 321 319 318 317 315 313 310 305 291 264 262 274 131 139 255 301 134 134 142 174 184 167 189 194 179 169 167 150 138 130 107 126 151 167 212 208 218 222 175 144 226 266 11 272 145 241 291 0 343 22 109 196 185 207 157 131 174 252 201 212 217 287 242 205 209 189 183 189 186 200 210
344 343 341 341 340 338 338 336 334 333 332 330 329 327 325 323 321 318 316 314 312 311 310 305 295 262 242 224 137 87 97 274 127 146 154 140 187 205 189 194 188 184 184 163 140 134 120 116 161 161 142 180 244 237 236 9 136 213 247 316 294 170 218 297 3 1 40 151 244 245 192 104 173 200 26 243 229 207 173 45 72 147 160 167 173 183 195 205
344 343 342 341 340 338 337 335 334 333 331 330 328 326 324 322 320 317 315 311 308 306 302 296 272 235 215 177 138 66 329 243 147 159 173 172 209 215 210 210 193 191 190 177 163 156 133 139 174 151 160 205 220 210 197 299 150 223 233 192 291 308 273 314 27 28 28 279 288 5 163 346 248 203 10 251 236 226 208 68 60 79 112 155 179 194 197 197
343 343 342 342 340 338 336 334 333 332 330 329 327 325 324 323 320 318 314 309 306 299 291 268 232 219 201 173 118 72 266 167 140 165 174 188 214 203 216 209 197 196 183 184 173 163 159 171 185 155 176 199 184 201 200 208 225 230 224 203 266 329 322 336 57 33 6 317 9 32 273 327 294 232 275 261 256 232 177 77 61 88 110 141 182 196 191 194
344 343 342 341 340 338 336 334 332 331 330 328 327 326 325 325 321 318 314 309 307 293 275 220 208 198 190 161 103 161 210 130 130 161 153 188 190 169 200 187 191 195 181 175 162 162 168 185 181 144 149 166 180 207 180 186 203 211 203 229 255 307 332 6 60 330 324 297 21 30 274 301 313 353 252 275 333 316 181 122 46 88 107 108 109 159 168 186
344 343 342 340 340 339 336 334 332 331 330 329 328 328 330 327 322 320 318 315 313 284 232 193 194 192 191 136 121 192 168 122 129 134 130 192 174 171 177 170 185 194 183 173 186 185 186 183 155 119 155 177 170 187 261 204 163 131 145 271 292 317 310 301 4 289 295 259 172 138 275 289 335 1 229 273 346 350 137 109 18 105 114 100 95 42 48 58
344 342 342 341 340 339 337 335 333 332 330 330 331 334 333 328 325 326 323 323 334 150 171 180 189 188 175 90 150 187 135 121 122 107 95 89 139 171 160 166 186 199 190 176 202 195 192 180 152 144 214 162 142 164 240 205 93 109 129 252 299 345 299 245 197 259 174 193 194 124 300 278 236 223 241 294 350 4 50 70 24 41 229 68 93 55 25 13
343 341 341 340 340 339 338 336 334 332 331 333 336 338 335 333 340 338 336 4 89 124 151 178 186 180 148 59 218 148 121 120 112 97 78 89 129 158 157 169 164 193 206 182 173 163 173 178 161 168 173 124 161 203 98 53 65 133 99 183 284 356 299 246 176 158 153 189 223 130 275 259 244 260 270 317 351 3 350 354 19 6 347 356 46 66 66 50
343 342 341 340 341 339 338 337 335 333 333 338 341 339 339 355 3 359 24 59 108 131 152 163 171 171 140 254 196 121 132 126 101 67 52 94 136 130 133 147 134 129 160 154 145 132 149 165 147 140 109 103 210 113 33 14 28 154 92 178 208 189 273 281 237 157 166 227 60 127 236 252 257 272 280 330 348 36 284 285 329 346 351 358 14 24 1 41
344 342 342 341 341 340 338 337 335 333 336 343 344 341 356 35 22 31 58 84 117 136 139 144 166 150 96 311 59 114 131 109 73 43 42 59 119 126 121 133 120 109 125 132 131 120 129 142 121 117 217 357 70 88 34 354 8 82 177 259 216 189 263 305 282 176 185 244 71 137 222 270 266 267 285 338 352 152 215 272 322 337 337 345 358 7 1 355
343 342 342 341 341 340 338 338 335 333 339 346 344 346 46 49 41 43 54 109 140 162 143 146 171 138 93 322 88 102 88 59 36 35 45 41 62 119 123 126 114 106 117 110 115 116 97 97 96 138 146 64 98 106 70 5 318 356 188 215 217 190 245 309 290 222 197 133 201 196 220 276 251 256 305 351 18 103 166 287 333 339 340 358 8 11 12 6
343 343 342 341 341 339 339 339 335 335 344 349 344 353 80 46 35 35 46 99 112 131 127 141 161 126 74 54 85 52 348 1 9 23 42 35 40 113 128 110 85 96 96 82 102 106 41 47 77 206 74 83 135 116 113 227 235 261 223 217 227 184 184 262 286 269 170 138 216 224 228 242 219 232 320 3 24 62 59 327 336 347 7 21 21 21 21 22
344 343 342 341 340 340 340 340 336 339 347 350 343 342 124 77 57 66 80 98 98 92 99 94 93 120 48 22 27 311 311 325 347 12 42 41 36 98 129 110 100 97 76 48 63 100 17 26 77 66 77 134 143 149 191 213 198 194 200 203 219 203 200 237 265 215 146 165 204 203 230 246 251 262 297 6 22 46 27 324 348 12 28 28 27 29 25 29
344 343 343 342 341 341 341 341 339 342 348 349 347 159 150 96 62 71 52 52 71 74 102 358 6 153 231 319 304 305 310 323 343 14 37 32 40 92 101 88 91 99 99 79 139 150 122 59 80 186 204 190 184 195 203 188 173 192 192 171 171 194 233 236 254 254 164 152 207 204 220 243 250 261 277 343 15 40 1 355 31 28 34 33 30 30 26 35
344 344 344 342 342 341 343 344 341 346 351 350 351 138 93 17 12 16 15 26 78 124 193 287 314 86 335 312 312 324 317 321 2 28 24 12 22 99 78 47 56 73 125 154 167 159 125 147 209 210 200 200 205 206 189 117 128 162 163 176 189 195 242 250 253 289 202 154 230 216 220 249 251 260 278 337 14 31 12 20 38 34 36 33 32 31 31 38
344 345 344 343 343 342 345 344 342 353 2 9 56 92 69 49 48 317 338 345 263 167 226 268 239 285 295 267 316 338 8 35 20 25 19 8 46 126 286 34 80 93 203 156 143 80 115 200 222 210 194 197 198 176 133 104 73 102 157 194 216 205 236 253 231 309 309 174 260 210 209 252 256 264 279 23 39 31 26 35 32 35 46 38 37 37 35 37
344 346 345 344 343 342 346 345 345 2 21 47 66 77 86 45 23 262 304 332 287 260 246 279 296 320 290 267 320 349 75 48 17 356 7 13 50 144 286 66 122 189 196 125 118 93 185 231 230 196 171 145 135 146 160 190 104 93 130 163 220 224 241 274 257 327 0 183 269 159 187 251 261 264 303 37 68 59 43 57 47 41 52 42 38 37 32 33
345 346 345 344 342 342 346 340 348 17 39 54 61 64 47 21 22 202 136 81 294 312 357 348 54 350 334 4 353 20 63 57 100 322 356 15 61 140 86 108 134 151 146 178 168 152 196 245 241 177 146 124 113 158 166 183 178 152 136 149 219 220 184 260 245 311 15 133 225 147 189 271 279 291 35 40 76 79 51 61 58 46 54 48 44 42 36 35
346 346 346 344 341 342 342 330 357 29 49 58 54 43 32 29 64 145 126 86 309 312 335 175 132 73 355 10 353 29 80 80 154 317 352 22 112 115 114 143 134 132 196 209 186 199 234 243 159 140 149 155 151 159 168 183 224 216 192 183 196 182 191 230 195 132 16 344 110 99 2 310 284 244 96 48 57 65 41 49 50 39 46 46 44 43 39 39
347 346 346 344 341 342 341 352 11 22 49 56 41 24 23 14 41 150 127 76 10 309 319 293 141 94 327 357 354 15 134 30 169 270 342 25 100 2 52 147 137 184 210 176 169 254 267 239 117 122 160 173 161 181 186 181 207 237 226 202 188 181 186 168 130 100 58 284 259 107 257 296 304 304 140 349 47 58 38 43 45 35 35 36 40 39 36 37
347 346 347 346 343 349 4 48 7 10 54 48 13 0 5 290 287 219 110 64 28 317 344 322 139 0 320 336 350 329 101 10 294 276 356 22 19 158 116 113 54 182 191 157 163 252 256 325 82 132 162 175 184 217 198 175 180 232 239 199 174 157 154 148 147 127 127 233 275 113 182 255 319 10 39 68 74 65 45 46 44 36 37 37 40 37 33 32
348 346 349 348 348 5 51 19 3 22 61 349 344 347 351 293 270 221 80 45 23 343 21 318 308 10 327 316 343 80 100 327 328 11 17 11 338 107 122 304 38 190 187 120 88 271 195 15 33 129 137 150 191 229 198 175 167 225 255 173 155 146 153 165 162 157 198 224 334 20 151 210 282 299 142 104 82 56 42 43 38 37 37 35 35 32 31 31
347 345 349 350 351 12 38 20 18 33 351 328 334 337 330 292 248 174 90 54 327 25 62 304 305 357 329 332 12 79 278 324 46 350 329 7 353 28 55 250 171 196 352 119 198 276 27 34 23 149 135 153 198 248 203 175 167 265 276 126 134 135 145 156 148 146 352 52 272 277 159 171 260 269 258 107 84 54 44 40 34 35 30 29 29 24 26 29
345 344 349 350 352 12 28 52 31 1 340 336 333 327 304 191 201 81 76 96 286 50 110 309 354 338 334 355 16 35 2 2 67 312 323 22 9 39 77 190 138 138 0 104 202 253 27 166 208 149 146 188 214 302 221 167 176 203 124 94 77 69 74 82 112 121 47 45 227 227 175 179 268 279 306 80 77 65 63 51 38 36 31 30 30 25 25 26
344 344 348 354 11 12 13 46 8 350 342 340 333 327 160 159 64 61 50 232 39 15 240 21 10 324 350 11 357 6 26 5 342 327 344 31 358 25 81 140 91 119 319 10 227 237 327 294 219 151 164 191 148 58 23 124 149 145 111 76 62 45 41 47 53 89 73 264 238 216 185 181 256 268 272 51 49 72 105 80 45 39 38 35 32 27 21 17
343 345 351 12 25 16 14 342 345 347 341 338 337 52 120 41 61 90 159 256 1 338 2 14 346 355 17 26 339 350 12 343 338 4 13 3 1 13 21 20 41 52 9 350 294 312 348 332 230 274 302 138 116 65 32 47 99 101 87 86 80 9 13 29 355 49 154 242 261 247 188 164 226 256 89 68 53 64 90 88 64 50 41 31 26 20 15 14
343 349 11 28 26 19 16 343 338 341 337 336 353 108 75 28 24 134 272 332 344 336 10 340 328 1 3 9 359 337 339 341 0 43 39 25 37 28 30 24 341 347 351 306 290 344 325 228 261 314 358 55 85 71 38 4 20 65 83 98 99 354 13 8 279 278 221 248 288 310 168 131 223 239 102 89 71 70 76 83 82 69 51 27 20 17 16 18
343 10 53 30 21 13 4 345 337 338 334 336 115 57 67 82 322 253 307 349 8 320 341 316 334 356 351 9 1 330 334 356 358 26 43 72 75 62 50 30 5 296 285 268 330 0 321 301 347 347 2 25 57 129 98 310 304 116 130 126 131 136 128 225 237 260 262 264 299 274 142 124 257 123 108 105 89 87 84 80 81 72 60 34 24 20 18 21
344 91 67 21 19 5 354 344 339 336 334 350 85 50 66 144 253 54 353 299 249 316 317 300 331 359 29 40 337 330 19 17 350 9 10 30 56 40 9 14 9 8 84 22 343 78 242 282 325 349 312 1 29 123 158 154 162 187 159 134 154 170 171 213 214 212 237 261 332 284 169 201 233 94 103 110 100 99 92 82 78 63 52 34 27 25 23 23
350 136 44 11 9 358 349 342 338 336 337 38 67 63 105 229 253 79 331 264 264 319 309 326 31 37 17 1 341 352 12 345 354 18 23 26 49 28 356 2 3 7 45 27 294 109 179 259 276 301 286 7 12 332 103 95 161 242 125 111 181 194 154 166 194 179 168 109 345 256 205 205 124 86 99 114 107 108 100 77 63 46 32 34 32 27 25 22
169 166 11 4 359 353 348 344 340 339 358 78 66 61 176 207 234 171 296 279 275 317 316 348 45 57 357 328 346 352 341 343 5 18 39 49 59 32 10 0 6 17 36 40 267 56 13 279 293 317 304 57 8 296 3 56 227 78 121 166 232 170 111 117 235 55 78 214 236 174 152 125 121 119 142 140 127 117 103 66 57 45 30 37 36 27 23 19
164 190 320 359 355 349 346 346 339 342 44 82 82 83 200 197 226 250 329 323 265 343 3 5 20 40 3 320 333 338 334 347 8 15 38 53 46 20 2 346 18 28 18 319 243 150 173 274 309 354 294 282 312 288 357 23 125 99 175 214 241 64 92 115 225 6 41 243 251 180 165 171 175 167 153 161 160 130 105 70 58 43 34 39 33 27 21 17
160 210 262 353 351 347 345 350 345 29 68 69 79 101 168 109 12 314 336 326 268 19 50 83 329 33 85 7 328 329 338 356 7 16 27 19 33 39 22 338 338 1 354 339 312 118 95 288 305 350 285 299 347 29 310 346 39 115 215 255 88 173 227 134 177 201 214 236 260 253 192 182 202 178 158 170 164 136 116 82 60 40 36 35 24 21 17 14
74 17 263 348 351 349 347 355 13 65 68 72 83 112 166 126 41 10 340 323 308 44 58 92 343 40 76 75 330 326 354 23 15 18 34 26 48 55 41 0 311 337 341 11 45 309 48 59 284 315 312 311 0 30 326 335 340 3 356 348 50 150 190 176 180 163 173 223 245 248 216 177 266 169 152 153 138 124 118 87 65 46 41 35 22 19 12 13
32 67 251 346 354 357 8 30 53 55 59 94 136 168 144 112 49 359 352 357 37 50 56 86 37 40 57 70 82 358 8 39 31 30 28 24 68 62 29 24 314 331 332 3 61 346 22 93 251 311 340 340 18 43 67 3 332 351 2 342 350 343 282 271 274 111 123 188 231 240 231 206 7 71 125 120 110 112 111 96 82 61 48 40 31 22 14 14
39 77 300 345 355 7 49 45 54 51 74 93 78 178 56 74 60 348 349 12 53 60 72 93 78 59 106 72 49 40 24 29 27 54 53 17 41 54 27 21 298 318 333 1 39 28 25 84 237 319 346 348 54 168 196 210 242 0 349 336 0 329 304 248 250 222 101 185 184 202 241 276 57 76 97 100 102 105 100 98 98 75 54 40 33 27 21 18
56 100 315 347 357 39 71 53 46 54 94 90 29 17 26 56 62 352 347 14 47 53 52 71 70 58 88 58 28 57 54 38 3 40 89 33 37 27 354 349 313 292 20 359 342 332 109 106 285 293 264 257 285 265 194 231 219 91 60 9 14 346 59 190 243 292 355 281 143 168 245 334 77 96 98 101 104 100 93 94 99 84 60 42 29 26 26 21
74 171 327 354 357 75 76 54 354 34 65 259 307 2 5 42 49 359 6 24 30 36 39 42 43 52 72 45 51 49 27 6 193 49 66 190 73 77 357 355 346 356 54 7 323 0 72 70 313 296 303 316 316 323 11 350 41 77 51 21 21 353 27 177 247 17 337 282 19 214 233 184 111 114 108 114 112 107 100 88 92 92 72 46 25 23 22 18
61 211 321 6 16 90 100 84 134 74 61 344 35 18 356 38 57 20 21 18 10 58 62 27 5 46 57 52 70 55 15 26 19 34 65 105 68 76 30 7 357 19 56 298 310 43 45 49 51 350 329 332 339 346 351 352 19 52 346 5 19 357 359 325 275 49 239 249 100 212 245 94 128 135 119 122 117 111 101 84 88 84 68 46 24 23 18 14
42 158 285 8 28 56 103 151 139 121 124 76 59 17 355 33 41 31 69 30 17 91 90 16 342 58 60 56 57 28 20 52 31 345 30 0 303 355 18 355 351 17 327 310 352 83 104 67 100 105 281 281 286 289 294 315 338 3 0 346 0 14 11 347 358 23 247 30 62 179 230 80 109 135 138 136 122 119 110 86 78 72 67 52 30 20 14 17
64 65 307 353 21 46 73 95 95 109 141 117 82 20 44 66 321 303 99 55 18 59 72 33 0 42 44 48 50 18 3 21 31 28 24 326 299 311 344 340 342 314 318 349 32 86 87 33 158 173 211 233 221 226 243 28 335 290 314 320 318 3 22 114 44 288 235 12 0 253 116 91 136 165 167 160 132 131 124 97 74 61 56 47 35 20 18 23
95 90 71 356 357 26 39 26 44 79 129 126 109 31 57 57 330 331 34 50 38 65 66 31 22 46 46 48 65 37 349 355 358 12 356 302 298 304 319 349 8 335 339 4 24 69 83 317 245 170 222 243 223 243 297 25 273 268 292 304 296 277 201 142 214 233 96 28 295 68 63 5 243 181 163 171 148 126 116 98 77 51 35 28 24 16 20 25
77 136 183 89 61 49 43 34 49 66 75 92 105 110 66 47 45 21 346 13 44 57 69 38 33 61 93 111 107 59 347 4 353 334 335 326 327 333 336 349 2 350 3 12 357 66 111 250 242 159 256 276 262 268 288 271 246 256 267 273 278 281 264 223 238 233 136 194 250 307 14 294 278 298 116 138 125 112 114 91 63 36 10 7 5 3 9 13
82 109 357 22 83 155 146 67 79 72 69 74 79 86 87 69 66 28 342 37 16 5 66 91 25 40 67 102 111 108 13 24 329 274 186 338 323 346 340 321 319 12 23 17 350 84 119 256 237 148 303 312 296 271 254 224 256 265 257 261 269 271 259 248 261 256 167 218 249 266 272 272 284 45 111 113 97 105 112 97 79 51 7 3 357 349 350 354
122 132 127 59 75 113 52 40 62 70 54 43 55 73 78 79 61 0 22 67 28 340 50 89 79 49 61 75 92 103 102 66 305 265 143 34 328 73 83 274 300 8 13 23 349 6 86 355 3 97 359 306 298 293 241 213 243 266 271 279 280 280 278 266 264 263 232 246 253 251 256 262 305 81 100 106 105 108 106 101 101 99 65 19 350 339 341 344
92 108 126 112 82 52 47 25 49 83 54 19 65 88 57 88 188 109 46 55 100 110 79 115 139 80 45 51 68 98 208 169 204 263 274 249 269 254 157 123 68 356 349 12 351 352 72 13 352 40 354 285 300 332 305 317 2 277 269 272 263 264 273 250 236 232 228 250 266 271 275 272 170 107 101 104 96 88 98 90 67 122 128 97 358 336 339 337
84 73 90 103 77 28 65 48 38 75 86 41 87 94 31 237 219 135 98 38 34 61 106 145 135 91 28 29 42 222 233 235 244 258 241 182 321 332 288 281 131 162 266 15 356 353 92 114 348 29 316 282 306 332 333 14 356 282 264 252 241 239 242 245 252 253 234 230 259 274 278 263 150 143 151 136 108 86 109 355 312 225 156 92 25 356 340 327